OE3UKW Weather Reports


time (UTC)temp
C
wind
direction
speed
KPH
gust
KPH
rain 1hr
cm
rain 24hr
cm
rain mn
cm
humidity
%
barometer
mb
20190420022309 3 333 8.0 9.7 0.00 0.00 0.00 73 1029.5
20190420022239 3 331 6.4 9.7 0.00 0.00 0.00 73 1030.9
20190420021743 2 317 6.4 9.7 0.00 0.00 0.00 73 1030.8
20190420021309 3 328 4.8 8.0 0.00 0.00 0.00 72 1029.5
20190420021239 3 329 6.4 8.0 0.00 0.00 0.00 71 1030.8
20190420020740 3 323 6.4 9.7 0.00 0.00 0.00 72 1030.9
20190420020309 3 325 8.0 8.0 0.00 0.00 0.00 73 1029.6
20190420020239 3 324 6.4 8.0 0.00 0.00 0.00 73 1030.9
20190420015740 3 321 6.4 8.0 0.00 0.00 0.00 70 1031.0
20190420015310 5 323 4.8 9.7 0.00 0.00 0.00 65 1029.5
20190420015239 5 324 6.4 9.7 0.00 0.00 0.00 65 1031.0
20190420014740 4 321 6.4 9.7 0.00 0.00 0.00 68 1031.0
20190420014310 3 324 6.4 9.7 0.00 0.00 0.00 69 1029.4
20190420014239 3 320 6.4 9.7 0.00 0.00 0.00 68 1030.8
20190420013742 4 323 4.8 9.7 0.00 0.00 0.00 68 1030.8
20190420013310 5 327 4.8 6.4 0.00 0.00 0.00 65 1029.3
20190420013239 5 327 4.8 6.4 0.00 0.00 0.00 65 1030.9
20190420012740 5 327 6.4 8.0 0.00 0.00 0.00 65 1030.9
20190420012310 5 321 4.8 8.0 0.00 0.00 0.00 64 1029.4
20190420012239 5 321 4.8 8.0 0.00 0.00 0.00 64 1030.9
20190420011310 6 320 4.8 9.7 0.00 0.00 0.00 60 1029.4
20190420011239 6 320 6.4 9.7 0.00 0.00 0.00 60 1030.9
20190420010740 6 314 6.4 9.7 0.00 0.00 0.00 61 1031.0
20190420010310 6 318 6.4 8.0 0.00 0.00 0.00 59 1029.5
20190420010239 6 327 6.4 8.0 0.00 0.00 0.00 60 1031.0
20190420005740 6 321 6.4 9.7 0.00 0.00 0.00 60 1030.9
20190420005309 6 331 6.4 8.0 0.00 0.00 0.00 60 1029.4
20190420005239 6 331 6.4 8.0 0.00 0.00 0.00 60 1030.9
20190420004741 7 336 4.8 8.0 0.00 0.00 0.00 60 1030.8
20190420004309 6 313 3.2 6.4 0.00 0.00 0.00 61 1029.4
20190420004239 6 313 3.2 6.4 0.00 0.00 0.00 61 1030.8
20190420003740 6 318 4.8 6.4 0.00 0.00 0.00 59 1030.8
20190420003309 7 320 6.4 8.0 0.00 0.00 0.00 59 1029.4
20190420003239 7 320 6.4 8.0 0.00 0.00 0.00 59 1030.9
20190420002740 7 317 6.4 11.3 0.00 0.00 0.00 60 1030.8
20190420002310 6 309 6.4 8.0 0.00 0.00 0.00 62 1029.5
20190420002239 6 303 6.4 9.7 0.00 0.00 0.00 62 1030.8
20190420001740 5 320 4.8 9.7 0.00 0.00 0.00 65 1030.8
20190420001310 5 322 3.2 4.8 0.00 0.00 0.00 65 1029.5
20190420001239 5 316 4.8 6.4 0.00 0.00 0.00 65 1030.9
20190420000741 6 316 6.4 11.3 0.00 0.00 0.00 62 1030.9
20190420000310 6 302 6.4 8.0 0.00 0.00 0.00 62 1029.4
20190420000239 6 302 4.8 8.0 0.00 0.00 0.00 62 1030.9
20190419235740 6 301 4.8 8.0 0.00 0.00 0.00 61 1030.9
20190419235310 7 313 3.2 8.0 0.00 0.00 0.00 60 1029.4
20190419235239 6 313 4.8 8.0 0.00 0.00 0.00 61 1030.9
20190419234741 7 336 6.4 11.3 0.00 0.00 0.00 60 1030.8
20190419234310 7 300 8.0 11.3 0.00 0.00 0.00 58 1029.3
20190419234239 7 301 8.0 11.3 0.00 0.00 0.00 58 1030.7
20190419233740 7 315 8.0 12.9 0.00 0.00 0.00 56 1030.8
20190419233310 9 309 8.0 12.9 0.00 0.00 0.00 52 1029.4
20190419233239 8 308 8.0 14.5 0.00 0.00 0.00 52 1030.8
20190419232740 8 293 8.0 12.9 0.00 0.00 0.00 53 1030.9
20190419232319 9 320 4.8 14.5 0.00 0.00 0.00 52 1029.5
20190419232239 8 300 8.0 16.1 0.00 0.00 0.00 53 1030.8
20190419231740 8 312 8.0 14.5 0.00 0.00 0.00 55 1030.9
20190419231310 8 322 3.2 14.5 0.00 0.00 0.00 55 1029.4
20190419231239 8 319 8.0 14.5 0.00 0.00 0.00 55 1030.8
20190419230753 7 307 6.4 12.9 0.00 0.00 0.00 58 1030.8
20190419230308 7 309 4.8 12.9 0.00 0.00 0.00 58 1029.4
20190419230239 7 313 6.4 12.9 0.00 0.00 0.00 58 1030.9
20190419225740 7 309 4.8 11.3 0.00 0.00 0.00 58 1030.9
20190419225308 8 355 4.8 9.7 0.00 0.00 0.00 58 1029.5
20190419225239 7 321 4.8 9.7 0.00 0.00 0.00 57 1031.0
20190419224740 7 335 4.8 8.0 0.00 0.00 0.00 57 1030.9
20190419224308 8 325 4.8 8.0 0.00 0.00 0.00 56 1029.5
20190419224239 8 336 6.4 8.0 0.00 0.00 0.00 56 1030.9
20190419223740 8 328 6.4 8.0 0.00 0.00 0.00 56 1030.7
20190419223239 8 333 8.0 8.0 0.00 0.00 0.00 54 1030.6
20190419222740 10 323 8.0 9.7 0.00 0.00 0.00 51 1030.6
20190419222239 10 333 9.7 12.9 0.00 0.00 0.00 48 1030.5
20190419221740 10 312 9.7 14.5 0.00 0.00 0.00 49 1030.6
20190419221308 10 311 9.7 12.9 0.00 0.00 0.00 48 1029.4
20190419221240 10 317 8.0 12.9 0.00 0.00 0.00 49 1030.6
20190419220740 10 311 8.0 11.3 0.00 0.00 0.00 49 1030.6
20190419220308 10 319 9.7 12.9 0.00 0.00 0.00 48 1029.4
20190419220240 10 304 8.0 12.9 0.00 0.00 0.00 48 1030.7
20190419215309 10 324 8.0 9.7 0.00 0.00 0.00 49 1029.4
20190419215240 10 329 6.4 9.7 0.00 0.00 0.00 49 1030.6
20190419214740 10 317 8.0 9.7 0.00 0.00 0.00 49 1030.6
20190419214309 10 324 8.0 9.7 0.00 0.00 0.00 50 1029.4
20190419214240 10 325 9.7 9.7 0.00 0.00 0.00 50 1030.6
20190419213740 9 327 9.7 14.5 0.00 0.00 0.00 52 1030.6
20190419213309 9 339 12.9 14.5 0.00 0.00 0.00 53 1029.3
20190419213240 9 338 6.4 12.9 0.00 0.00 0.00 53 1030.5
20190419212740 10 336 8.0 9.7 0.00 0.00 0.00 52 1030.4
20190419212309 10 340 6.4 14.5 0.00 0.00 0.00 50 1029.2
20190419212240 10 332 8.0 14.5 0.00 0.00 0.00 50 1030.4
20190419211740 11 327 8.0 12.9 0.00 0.00 0.00 48 1030.3
20190419211309 11 333 9.7 14.5 0.00 0.00 0.00 48 1029.1
20190419211240 11 338 9.7 14.5 0.00 0.00 0.00 47 1030.3
20190419210741 11 338 11.3 14.5 0.00 0.00 0.00 46 1030.4
20190419210240 11 336 11.3 14.5 0.00 0.00 0.00 45 1030.4
20190419205741 12 355 11.3 14.5 0.00 0.00 0.00 43 1030.3
20190419205309 12 336 9.7 16.1 0.00 0.00 0.00 42 1029.1
20190419205240 12 346 9.7 16.1 0.00 0.00 0.00 42 1030.3
20190419204741 12 321 9.7 12.9 0.00 0.00 0.00 41 1030.3
20190419204309 13 316 8.0 14.5 0.00 0.00 0.00 41 1029.0
20190419204240 12 319 9.7 14.5 0.00 0.00 0.00 41 1030.3
20190419203741 12 323 9.7 14.5 0.00 0.00 0.00 41 1030.2
20190419203309 12 319 9.7 14.5 0.00 0.00 0.00 42 1029.0
20190419203240 12 308 9.7 14.5 0.00 0.00 0.00 42 1030.1
20190419202743 12 313 9.7 12.9 0.00 0.00 0.00 43 1030.1
20190419202330 12 313 8.0 12.9 0.00 0.00 0.00 44 1028.9
20190419202240 12 312 8.0 12.9 0.00 0.00 0.00 44 1030.0
20190419201741 12 303 6.4 11.3 0.00 0.00 0.00 45 1029.9
20190419201309 12 312 6.4 11.3 0.00 0.00 0.00 43 1028.9
20190419201240 12 315 6.4 11.3 0.00 0.00 0.00 43 1030.0
20190419200741 12 305 6.4 11.3 0.00 0.00 0.00 43 1029.9
20190419200309 12 319 6.4 11.3 0.00 0.00 0.00 43 1028.9
20190419200240 12 316 6.4 11.3 0.00 0.00 0.00 43 1030.0
20190419195741 13 317 8.0 11.3 0.00 0.00 0.00 42 1030.0
20190419195309 13 319 6.4 14.5 0.00 0.00 0.00 42 1028.8
20190419195240 13 313 9.7 14.5 0.00 0.00 0.00 42 1029.9
20190419194741 13 315 8.0 14.5 0.00 0.00 0.00 42 1029.9
20190419194309 13 311 6.4 8.0 0.00 0.00 0.00 42 1028.7
20190419194240 13 321 6.4 8.0 0.00 0.00 0.00 42 1029.9
20190419193741 13 319 6.4 9.7 0.00 0.00 0.00 42 1029.9
20190419193309 13 321 6.4 9.7 0.00 0.00 0.00 41 1028.6
20190419193240 13 321 6.4 9.7 0.00 0.00 0.00 41 1030.0
20190419192741 13 342 4.8 9.7 0.00 0.00 0.00 40 1030.1
20190419192240 13 337 4.8 8.0 0.00 0.00 0.00 40 1030.0
20190419191743 13 344 4.8 8.0 0.00 0.00 0.00 39 1030.0
20190419191309 14 325 4.8 8.0 0.00 0.00 0.00 39 1028.6
20190419191240 13 322 6.4 9.7 0.00 0.00 0.00 39 1029.9
20190419190741 14 348 6.4 11.3 0.00 0.00 0.00 40 1029.7
20190419190309 14 355 6.4 8.0 0.00 0.00 0.00 39 1028.6
20190419190240 14 0 6.4 8.0 0.00 0.00 0.00 39 1029.8
20190419185741 15 0 6.4 9.7 0.00 0.00 0.00 38 1029.8
20190419185310 15 360 6.4 9.7 0.00 0.00 0.00 38 1028.5
20190419185240 15 0 4.8 9.7 0.00 0.00 0.00 38 1029.9
20190419184741 15 350 4.8 8.0 0.00 0.00 0.00 38 1029.8
20190419184309 15 338 4.8 9.7 0.00 0.00 0.00 37 1028.5
20190419184240 15 338 6.4 9.7 0.00 0.00 0.00 37 1029.8
20190419183741 15 337 6.4 9.7 0.00 0.00 0.00 37 1029.8
20190419183310 16 342 6.4 8.0 0.00 0.00 0.00 37 1028.4
20190419183240 15 342 4.8 8.0 0.00 0.00 0.00 37 1029.6
20190419182741 15 346 4.8 8.0 0.00 0.00 0.00 36 1029.6
20190419182310 16 360 4.8 11.3 0.00 0.00 0.00 36 1028.4
20190419182240 16 0 6.4 11.3 0.00 0.00 0.00 36 1029.5
20190419181741 16 339 6.4 12.9 0.00 0.00 0.00 36 1029.4
20190419181310 16 5 6.4 12.9 0.00 0.00 0.00 35 1028.3
20190419181240 16 355 4.8 12.9 0.00 0.00 0.00 35 1029.4
20190419180741 15 331 4.8 8.0 0.00 0.00 0.00 35 1029.3
20190419180310 16 315 3.2 6.4 0.00 0.00 0.00 34 1028.2
20190419180240 16 345 4.8 6.4 0.00 0.00 0.00 34 1029.3
20190419175741 16 335 4.8 6.4 0.00 0.00 0.00 32 1029.3
20190419175310 17 322 6.4 8.0 0.00 0.00 0.00 30 1028.1
20190419175240 17 325 6.4 8.0 0.00 0.00 0.00 30 1029.3
20190419174741 18 346 8.0 12.9 0.00 0.00 0.00 28 1029.3
20190419174310 18 28 9.7 14.5 0.00 0.00 0.00 27 1028.1
20190419174240 18 26 9.7 14.5 0.00 0.00 0.00 27 1029.1
20190419173744 18 24 11.3 19.3 0.00 0.00 0.00 26 1029.1
20190419173310 19 20 12.9 17.7 0.00 0.00 0.00 26 1028.0
20190419173240 19 22 11.3 17.7 0.00 0.00 0.00 26 1029.1
20190419172840 19 21 12.9 17.7 0.00 0.00 0.00 25 1029.1
20190419172741 19 21 12.9 17.7 0.00 0.00 0.00 25 1029.1
20190419172310 20 28 14.5 19.3 0.00 0.00 0.00 24 1027.9
20190419172240 19 0 12.9 19.3 0.00 0.00 0.00 24 1029.1
20190419171741 20 0 12.9 20.9 0.00 0.00 0.00 24 1029.1
20190419171310 20 5 12.9 19.3 0.00 0.00 0.00 23 1027.8
20190419171240 20 355 14.5 19.3 0.00 0.00 0.00 23 1029.1
20190419170741 20 17 16.1 22.5 0.00 0.00 0.00 22 1029.1
20190419170308 20 344 19.3 24.1 0.00 0.00 0.00 22 1027.7
20190419170240 20 28 16.1 24.1 0.00 0.00 0.00 22 1029.0
20190419165741 20 20 14.5 24.1 0.00 0.00 0.00 22 1029.0
20190419165308 20 19 16.1 20.9 0.00 0.00 0.00 21 1027.6
20190419165240 20 40 14.5 20.9 0.00 0.00 0.00 21 1029.0
20190419164742 20 26 16.1 27.4 0.00 0.00 0.00 21 1028.9
20190419164240 21 34 16.1 20.9 0.00 0.00 0.00 21 1028.9
20190419163741 21 15 16.1 27.4 0.00 0.00 0.00 21 1028.9
20190419163308 21 11 14.5 22.5 0.00 0.00 0.00 21 1027.5
20190419163240 21 5 17.7 22.5 0.00 0.00 0.00 21 1028.9
20190419162742 21 32 17.7 27.4 0.00 0.00 0.00 21 1028.9
20190419162308 21 335 19.3 24.1 0.00 0.00 0.00 21 1027.6
20190419162240 21 0 17.7 22.5 0.00 0.00 0.00 21 1028.9
20190419161741 21 342 17.7 27.4 0.00 0.00 0.00 21 1028.8
20190419161309 21 348 17.7 27.4 0.00 0.00 0.00 20 1027.6
20190419161240 21 338 17.7 25.7 0.00 0.00 0.00 20 1028.7
20190419160741 21 355 17.7 24.1 0.00 0.00 0.00 19 1028.7
20190419160308 21 5 17.7 24.1 0.00 0.00 0.00 21 1027.7
20190419160240 21 355 14.5 24.1 0.00 0.00 0.00 20 1028.7
20190419155741 21 5 14.5 17.7 0.00 0.00 0.00 21 1028.8
20190419155309 21 12 16.1 24.1 0.00 0.00 0.00 20 1027.6
20190419155240 21 24 16.1 25.7 0.00 0.00 0.00 20 1028.8
20190419154741 21 19 14.5 27.4 0.00 0.00 0.00 20 1029.0
20190419154308 22 293 14.5 19.3 0.00 0.00 0.00 21 1027.7
20190419154240 21 0 14.5 19.3 0.00 0.00 0.00 21 1028.9
20190419153741 21 13 16.1 24.1 0.00 0.00 0.00 21 1028.9
20190419153308 22 42 11.3 19.3 0.00 0.00 0.00 23 1027.8
20190419153240 21 23 14.5 24.1 0.00 0.00 0.00 23 1029.0
20190419152742 21 45 12.9 24.1 0.00 0.00 0.00 21 1028.9
20190419152309 22 355 16.1 22.5 0.00 0.00 0.00 21 1027.9
20190419152240 22 19 14.5 22.5 0.00 0.00 0.00 21 1029.0
20190419151743 22 329 14.5 22.5 0.00 0.00 0.00 23 1029.0
20190419151309 22 360 14.5 27.4 0.00 0.00 0.00 21 1027.9
20190419151240 22 38 12.9 27.4 0.00 0.00 0.00 21 1029.0
20190419150742 22 60 12.9 19.3 0.00 0.00 0.00 22 1029.1
20190419150309 22 48 12.9 22.5 0.00 0.00 0.00 24 1027.9
20190419150240 22 0 14.5 22.5 0.00 0.00 0.00 24 1029.1
20190419145744 22 331 16.1 27.4 0.00 0.00 0.00 24 1029.1
20190419145309 22 5 14.5 22.5 0.00 0.00 0.00 22 1028.0
20190419145240 22 339 17.7 20.9 0.00 0.00 0.00 22 1029.1
20190419144741 22 344 17.7 27.4 0.00 0.00 0.00 22 1029.1
20190419144309 22 344 20.9 27.4 0.00 0.00 0.00 22 1027.9
20190419144240 22 355 12.9 25.7 0.00 0.00 0.00 22 1029.2
20190419143741 22 338 11.3 17.7 0.00 0.00 0.00 22 1029.2
20190419143309 22 49 4.8 25.7 0.00 0.00 0.00 23 1028.0
20190419143240 22 50 14.5 30.6 0.00 0.00 0.00 23 1029.2
20190419142741 22 12 12.9 27.4 0.00 0.00 0.00 21 1029.3
20190419142309 22 355 16.1 22.5 0.00 0.00 0.00 21 1028.1
20190419142240 22 348 11.3 22.5 0.00 0.00 0.00 21 1029.3
20190419141742 22 355 12.9 19.3 0.00 0.00 0.00 22 1029.3
20190419141309 22 321 14.5 20.9 0.00 0.00 0.00 22 1028.1
20190419141240 22 355 14.5 20.9 0.00 0.00 0.00 23 1029.3
20190419140309 22 329 8.0 19.3 0.00 0.00 0.00 23 1028.2
20190419140240 22 319 14.5 19.3 0.00 0.00 0.00 23 1029.5
20190419135741 22 339 14.5 24.1 0.00 0.00 0.00 29 1029.5
20190419135309 22 325 20.9 27.4 0.00 0.00 0.00 26 1028.5
20190419135240 22 334 11.3 27.4 0.00 0.00 0.00 26 1029.6
20190419134309 22 322 4.8 16.1 0.00 0.00 0.00 27 1028.5
20190419134240 22 341 12.9 19.3 0.00 0.00 0.00 26 1029.7
20190419133741 22 323 11.3 27.4 0.00 0.00 0.00 25 1029.8
20190419133241 22 335 8.0 17.7 0.00 0.00 0.00 29 1029.8
20190419132742 22 301 8.0 14.5 0.00 0.00 0.00 25 1029.8
20190419132309 22 351 9.7 19.3 0.00 0.00 0.00 24 1028.8
20190419132240 22 5 12.9 19.3 0.00 0.00 0.00 24 1030.0
20190419131743 22 17 16.1 29.0 0.00 0.00 0.00 26 1029.9
20190419131310 22 325 20.9 25.7 0.00 0.00 0.00 27 1028.8
20190419131240 22 340 12.9 25.7 0.00 0.00 0.00 27 1030.0
20190419130744 22 315 11.3 17.7 0.00 0.00 0.00 26 1030.2
20190419130310 22 342 9.7 17.7 0.00 0.00 0.00 28 1029.1
20190419130241 21 343 11.3 17.7 0.00 0.00 0.00 27 1030.3
20190419125742 22 13 11.3 20.9 0.00 0.00 0.00 30 1030.3
20190419125310 21 269 6.4 20.9 0.00 0.00 0.00 31 1029.1
20190419125241 21 284 9.7 19.3 0.00 0.00 0.00 31 1030.2
20190419124741 21 335 11.3 19.3 0.00 0.00 0.00 30 1030.3
20190419124309 21 269 4.8 24.1 0.00 0.00 0.00 30 1029.3
20190419124240 21 258 11.3 24.1 0.00 0.00 0.00 30 1030.4
20190419123310 21 315 9.7 19.3 0.00 0.00 0.00 32 1029.3
20190419123240 21 326 12.9 19.3 0.00 0.00 0.00 31 1030.5
20190419122742 21 347 12.9 24.1 0.00 0.00 0.00 31 1030.5
20190419122310 21 340 19.3 25.7 0.00 0.00 0.00 31 1029.5
20190419122241 21 355 9.7 25.7 0.00 0.00 0.00 31 1030.5
20190419121742 21 316 12.9 20.9 0.00 0.00 0.00 35 1030.6
20190419121310 21 337 11.3 22.5 0.00 0.00 0.00 34 1029.5
20190419121241 21 18 11.3 22.5 0.00 0.00 0.00 34 1030.6
20190419120800 21 325 8.0 22.5 0.00 0.00 0.00 36 1030.6
20190419120310 21 355 6.4 17.7 0.00 0.00 0.00 35 1029.6
20190419120241 21 355 11.3 17.7 0.00 0.00 0.00 35 1030.7
20190419115741 21 43 9.7 24.1 0.00 0.00 0.00 34 1030.7
20190419115310 21 22 8.0 14.5 0.00 0.00 0.00 37 1029.7
20190419115241 21 342 4.8 16.1 0.00 0.00 0.00 37 1030.7
20190419114741 20 279 6.4 14.5 0.00 0.00 0.00 42 1030.7
20190419114310 20 88 3.2 17.7 0.00 0.00 0.00 37 1029.8
20190419114241 20 90 11.3 17.7 0.00 0.00 0.00 37 1030.8
20190419113744 21 28 9.7 20.9 0.00 0.00 0.00 37 1030.9
20190419113310 21 338 19.3 22.5 0.00 0.00 0.00 38 1029.7
20190419113245 21 344 9.7 22.5 0.00 0.00 0.00 38 1030.9
20190419112743 20 56 6.4 16.1 0.00 0.00 0.00 38 1030.9
20190419112310 20 65 6.4 16.1 0.00 0.00 0.00 39 1029.8
20190419112241 20 47 6.4 12.9 0.00 0.00 0.00 41 1031.0
20190419111744 20 286 8.0 12.9 0.00 0.00 0.00 40 1030.9
20190419111310 20 290 8.0 16.1 0.00 0.00 0.00 40 1029.9
20190419111241 20 282 8.0 16.1 0.00 0.00 0.00 40 1031.0
20190419110742 21 13 6.4 17.7 0.00 0.00 0.00 39 1031.1
20190419110310 20 275 6.4 11.3 0.00 0.00 0.00 45 1030.0
20190419110241 20 338 8.0 11.3 0.00 0.00 0.00 45 1031.2
20190419105742 20 281 11.3 17.7 0.00 0.00 0.00 42 1031.2
20190419105241 20 332 9.7 19.3 0.00 0.00 0.00 40 1031.1
20190419104742 20 333 9.7 17.7 0.00 0.00 0.00 42 1031.2
20190419104241 20 277 9.7 16.1 0.00 0.00 0.00 40 1031.2
20190419103742 20 327 11.3 17.7 0.00 0.00 0.00 38 1031.3
20190419103241 19 355 11.3 19.3 0.00 0.00 0.00 40 1031.3
20190419102308 20 5 12.9 17.7 0.00 0.00 0.00 40 1030.3
20190419102241 19 15 9.7 17.7 0.00 0.00 0.00 40 1031.6
20190419101302 18 303 8.0 12.9 0.00 0.00 0.00 42 1031.5
20190419100743 18 0 11.3 19.3 0.00 0.00 0.00 41 1031.4
20190419100308 7 320 4.8 8.0 0.00 0.00 0.00 71 1029.3
20190419100241 18 0 11.3 17.7 0.00 0.00 0.00 41 1031.6
20190419095743 18 11 12.9 20.9 0.00 0.00 0.00 40 1031.7
20190419095308 18 355 12.9 19.3 0.00 0.00 0.00 41 1030.5
20190419095241 18 355 12.9 19.3 0.00 0.00 0.00 41 1031.8
20190419094742 18 35 11.3 19.3 0.00 0.00 0.00 41 1031.8
20190419094309 18 15 8.0 19.3 0.00 0.00 0.00 43 1030.7
20190419094241 18 5 9.7 19.3 0.00 0.00 0.00 42 1031.9
20190419093742 18 355 9.7 14.5 0.00 0.00 0.00 43 1031.8
20190419093309 18 5 12.9 16.1 0.00 0.00 0.00 43 1030.7
20190419093241 18 333 8.0 16.1 0.00 0.00 0.00 43 1032.0
20190419092742 18 5 9.7 16.1 0.00 0.00 0.00 42 1032.1
20190419092308 6 323 1.6 4.8 0.00 0.00 0.00 75 1029.4
20190419092242 18 355 11.3 17.7 0.00 0.00 0.00 44 1032.2
20190419091742 17 341 9.7 19.3 0.00 0.00 0.00 45 1032.1
20190419091308 17 5 14.5 19.3 0.00 0.00 0.00 44 1031.1
20190419091241 17 10 11.3 19.3 0.00 0.00 0.00 45 1032.2
20190419090742 17 350 11.3 17.7 0.00 0.00 0.00 45 1032.3
20190419090309 17 5 11.3 16.1 0.00 0.00 0.00 45 1031.0
20190419090241 17 13 9.7 14.5 0.00 0.00 0.00 44 1032.3
20190419085742 17 5 9.7 14.5 0.00 0.00 0.00 45 1032.3
20190419085309 17 346 9.7 17.7 0.00 0.00 0.00 47 1031.1
20190419085241 16 355 9.7 17.7 0.00 0.00 0.00 47 1032.2
20190419084742 16 0 9.7 17.7 0.00 0.00 0.00 47 1032.3
20190419084309 16 5 6.4 17.7 0.00 0.00 0.00 47 1031.1
20190419084241 16 14 11.3 17.7 0.00 0.00 0.00 47 1032.3
20190419083742 16 29 9.7 16.1 0.00 0.00 0.00 46 1032.3
20190419083309 7 320 4.8 8.0 0.00 0.00 0.00 71 1029.3
20190419083241 16 15 8.0 17.7 0.00 0.00 0.00 48 1032.2
20190419082743 16 296 8.0 12.9 0.00 0.00 0.00 50 1032.3
20190419082309 16 332 8.0 14.5 0.00 0.00 0.00 49 1031.1
20190419082241 16 344 8.0 14.5 0.00 0.00 0.00 49 1032.4
20190419081742 16 316 8.0 12.9 0.00 0.00 0.00 48 1032.2
20190419081309 16 327 8.0 14.5 0.00 0.00 0.00 48 1031.2
20190419081241 16 5 8.0 14.5 0.00 0.00 0.00 48 1032.1
20190419080742 16 332 8.0 12.9 0.00 0.00 0.00 51 1032.3
20190419080309 15 12 8.0 11.3 0.00 0.00 0.00 49 1031.2
20190419080241 15 38 6.4 11.3 0.00 0.00 0.00 51 1032.3
20190419075742 15 346 6.4 8.0 0.00 0.00 0.00 51 1032.3
20190419075309 15 14 4.8 9.7 0.00 0.00 0.00 53 1031.3
20190419075241 15 5 6.4 12.9 0.00 0.00 0.00 52 1032.4
20190419074742 14 342 6.4 11.3 0.00 0.00 0.00 53 1032.4
20190419074309 15 13 6.4 12.9 0.00 0.00 0.00 54 1031.3
20190419074241 15 5 8.0 11.3 0.00 0.00 0.00 54 1032.3
20190419073742 14 346 8.0 14.5 0.00 0.00 0.00 53 1032.2
20190419073241 13 340 6.4 11.3 0.00 0.00 0.00 52 1032.3
20190419072820 13 27 8.0 11.3 0.00 0.00 0.00 54 1032.2
20190419072742 13 27 8.0 11.3 0.00 0.00 0.00 54 1032.2
20190419072310 13 31 8.0 11.3 0.00 0.00 0.00 54 1031.0
20190419072241 13 15 8.0 11.3 0.00 0.00 0.00 54 1032.3
20190419071241 13 9 8.0 12.9 0.00 0.00 0.00 55 1032.1
20190419070742 13 9 8.0 12.9 0.00 0.00 0.00 55 1032.0
20190419070309 13 348 8.0 12.9 0.00 0.00 0.00 54 1031.0
20190419070241 13 351 6.4 12.9 0.00 0.00 0.00 54 1032.2
20190419065742 12 334 4.8 12.9 0.00 0.00 0.00 57 1032.1
20190419065309 12 327 6.4 8.0 0.00 0.00 0.00 58 1031.1
20190419065241 12 333 4.8 8.0 0.00 0.00 0.00 58 1032.0
20190419064742 12 346 6.4 9.7 0.00 0.00 0.00 58 1032.2
20190419064309 12 342 6.4 8.0 0.00 0.00 0.00 60 1030.9
20190419064241 12 336 6.4 8.0 0.00 0.00 0.00 60 1032.1
20190419063743 12 335 6.4 8.0 0.00 0.00 0.00 59 1032.0
20190419063310 12 351 6.4 9.7 0.00 0.00 0.00 60 1031.0
20190419063241 11 347 6.4 9.7 0.00 0.00 0.00 60 1032.1
20190419062742 11 318 4.8 9.7 0.00 0.00 0.00 60 1032.1
20190419062310 11 312 6.4 9.7 0.00 0.00 0.00 61 1030.9
20190419062241 11 284 4.8 8.0 0.00 0.00 0.00 61 1032.1
20190419061742 11 321 6.4 9.7 0.00 0.00 0.00 62 1032.5
20190419061309 11 324 4.8 8.0 0.00 0.00 0.00 62 1030.9
20190419061241 10 355 6.4 9.7 0.00 0.00 0.00 61 1032.4
20190419060742 10 338 8.0 12.9 0.00 0.00 0.00 62 1032.3
20190419060310 10 317 9.7 12.9 0.00 0.00 0.00 63 1030.9
20190419060241 10 326 6.4 12.9 0.00 0.00 0.00 63 1032.1
20190419055744 10 327 4.8 9.7 0.00 0.00 0.00 64 1032.2
20190419055310 10 332 3.2 8.0 0.00 0.00 0.00 67 1030.8
20190419055241 10 332 4.8 8.0 0.00 0.00 0.00 67 1032.1
20190419054743 9 324 4.8 8.0 0.00 0.00 0.00 67 1032.1
20190419054310 9 316 4.8 6.4 0.00 0.00 0.00 68 1030.9
20190419054241 9 316 4.8 6.4 0.00 0.00 0.00 68 1032.0
20190419053742 8 319 6.4 9.7 0.00 0.00 0.00 69 1032.1
20190419053310 8 327 6.4 12.9 0.00 0.00 0.00 69 1030.9
20190419053241 8 343 4.8 12.9 0.00 0.00 0.00 69 1032.4
20190419052743 8 321 3.2 8.0 0.00 0.00 0.00 70 1032.2
20190419052310 8 315 3.2 6.4 0.00 0.00 0.00 73 1030.7
20190419052241 7 315 3.2 6.4 0.00 0.00 0.00 73 1032.0
20190419051742 7 304 1.6 6.4 0.00 0.00 0.00 73 1031.9
20190419051310 6 317 1.6 4.8 0.00 0.00 0.00 74 1030.7
20190419051241 6 317 0.0 4.8 0.00 0.00 0.00 74 1031.9
20190419050310 6 317 1.6 4.8 0.00 0.00 0.00 75 1030.7
20190419050241 6 317 3.2 4.8 0.00 0.00 0.00 75 1032.0
20190419045742 6 317 3.2 6.4 0.00 0.00 0.00 76 1031.9
20190419045241 5 321 3.2 8.0 0.00 0.00 0.00 76 1031.9
20190419044747 5 324 3.2 4.8 0.00 0.00 0.00 77 1031.8
20190419044310 5 323 4.8 8.0 0.00 0.00 0.00 78 1030.6
20190419044242 5 322 3.2 8.0 0.00 0.00 0.00 78 1031.6
20190419043743 4 321 1.6 6.4 0.00 0.00 0.00 81 1031.6
20190419043308 4 325 3.2 4.8 0.00 0.00 0.00 79 1030.4
20190419043241 3 325 3.2 4.8 0.00 0.00 0.00 78 1031.6
20190419042742 4 325 6.4 8.0 0.00 0.00 0.00 79 1031.6
20190419042311 5 331 6.4 8.0 0.00 0.00 0.00 79 1030.4
20190419042241 4 329 6.4 8.0 0.00 0.00 0.00 79 1031.7
20190419041742 4 333 8.0 9.7 0.00 0.00 0.00 79 1031.7
20190419041308 4 329 6.4 12.9 0.00 0.00 0.00 79 1030.2
20190419041242 4 336 6.4 12.9 0.00 0.00 0.00 79 1031.5
20190419040743 3 330 6.4 9.7 0.00 0.00 0.00 80 1031.5
20190419040308 3 327 8.0 9.7 0.00 0.00 0.00 79 1030.2
20190419040241 3 324 6.4 9.7 0.00 0.00 0.00 79 1031.4
20190419035742 3 321 4.8 9.7 0.00 0.00 0.00 80 1031.3
20190419035308 4 325 4.8 4.8 0.00 0.00 0.00 78 1030.1
20190419035241 3 325 3.2 4.8 0.00 0.00 0.00 78 1031.3
20190419034742 5 325 3.2 4.8 0.00 0.00 0.00 77 1031.2
20190419034309 5 323 1.6 4.8 0.00 0.00 0.00 77 1030.0
20190419034241 5 323 4.8 4.8 0.00 0.00 0.00 77 1031.3
20190419033742 5 323 8.0 9.7 0.00 0.00 0.00 76 1031.2
20190419033309 5 320 8.0 12.9 0.00 0.00 0.00 77 1029.8
20190419033241 5 320 8.0 14.5 0.00 0.00 0.00 77 1031.2
20190419032746 5 317 6.4 12.9 0.00 0.00 0.00 77 1031.2
20190419032309 5 315 6.4 8.0 0.00 0.00 0.00 76 1029.9
20190419032241 5 310 6.4 8.0 0.00 0.00 0.00 76 1031.1
20190419031744 5 327 6.4 8.0 0.00 0.00 0.00 77 1031.1
20190419031309 5 313 6.4 9.7 0.00 0.00 0.00 77 1029.7
20190419031241 5 319 8.0 9.7 0.00 0.00 0.00 77 1031.0
20190419030743 5 328 9.7 12.9 0.00 0.00 0.00 77 1031.0
20190419030405 5 328 8.0 12.9 0.00 0.00 0.00 80 1031.0
20190419030309 5 321 8.0 12.9 0.00 0.00 0.00 78 1029.7
20190419030242 5 320 9.7 12.9 0.00 0.00 0.00 78 1031.0
20190419025743 5 328 8.0 12.9 0.00 0.00 0.00 80 1031.0
20190419025309 4 323 8.0 9.7 0.00 0.00 0.00 81 1029.8
20190419025241 3 317 6.4 9.7 0.00 0.00 0.00 81 1031.1
20190419025222 4 313 6.4 11.3 0.00 0.00 0.00 81 1030.9
20190419024840 4 313 6.4 11.3 0.00 0.00 0.00 81 1030.9
20190419024742 4 313 6.4 11.3 0.00 0.00 0.00 81 1030.9
20190419024309 3 317 6.4 8.0 0.00 0.00 0.00 83 1029.8
20190419024241 3 315 4.8 8.0 0.00 0.00 0.00 83 1030.9
20190419023744 3 325 6.4 6.4 0.00 0.00 0.00 79 1030.8
20190419023309 4 324 4.8 8.0 0.00 0.00 0.00 78 1029.7
20190419023242 4 324 6.4 8.0 0.00 0.00 0.00 78 1030.8
20190419022742 3 322 4.8 9.7 0.00 0.00 0.00 80 1030.9